ARG1585 SANT-SACO

Flight info

Callsign ARG1585
Flight time 0h 59m
Altitude 35000
Route IMBOL3E IMBOL UW5 DONKA DONKA1Q
Aircraft B738/M-SDE2E3FGHIRWXY/LB1

Departure

Time 2026-05-03 20:15
Airport Teniente Benjamín Matienzo International Airport (SANT)

Arrival

Time 2026-05-03 21:15
Airport Ingeniero Aeronáutico Ambrosio L.V. Taravella International Airport (SACO)
Time Latitude Longitude Altitude Speed Heading
2026-05-03 20:15 -27.04032 -65.07895 9530 ft 264 kts 171°
2026-05-03 20:15 -27.05837 -65.07521 10090 ft 264 kts 172°
2026-05-03 20:15 -27.07656 -65.07146 10557 ft 267 kts 172°
2026-05-03 20:15 -27.09495 -65.06766 11027 ft 270 kts 173°
2026-05-03 20:16 -27.11351 -65.06384 11515 ft 272 kts 173°
2026-05-03 20:16 -27.13219 -65.05999 12002 ft 274 kts 173°
2026-05-03 20:16 -27.15098 -65.05611 12503 ft 276 kts 174°
2026-05-03 20:16 -27.16990 -65.05220 12992 ft 278 kts 174°
2026-05-03 20:17 -27.18906 -65.04825 13473 ft 280 kts 174°
2026-05-03 20:17 -27.20826 -65.04429 13934 ft 282 kts 174°
2026-05-03 20:17 -27.22766 -65.04028 14361 ft 284 kts 174°
2026-05-03 20:17 -27.24715 -65.03625 14797 ft 286 kts 175°
2026-05-03 20:18 -27.26680 -65.03219 15233 ft 288 kts 175°
2026-05-03 20:18 -27.28653 -65.02811 15668 ft 289 kts 175°
2026-05-03 20:18 -27.30641 -65.02400 16098 ft 291 kts 175°
2026-05-03 20:18 -27.32638 -65.01986 16530 ft 293 kts 175°
2026-05-03 20:19 -27.34622 -65.01576 16956 ft 295 kts 175°
2026-05-03 20:19 -27.36646 -65.01156 17378 ft 296 kts 175°
2026-05-03 20:19 -27.38684 -65.00734 17794 ft 298 kts 175°
2026-05-03 20:19 -27.40730 -65.00310 18200 ft 300 kts 175°
2026-05-03 20:20 -27.42791 -64.99883 18565 ft 302 kts 175°
2026-05-03 20:20 -27.44862 -64.99453 18930 ft 303 kts 175°
2026-05-03 20:20 -27.46941 -64.99021 19295 ft 304 kts 175°
2026-05-03 20:20 -27.49027 -64.98588 19659 ft 305 kts 175°
2026-05-03 20:21 -27.51148 -64.98147 20021 ft 307 kts 175°
2026-05-03 20:21 -27.53249 -64.97711 20367 ft 308 kts 175°
2026-05-03 20:21 -27.55367 -64.97271 20701 ft 310 kts 175°
2026-05-03 20:21 -27.57461 -64.96835 21029 ft 311 kts 175°
2026-05-03 20:22 -27.59621 -64.96386 21365 ft 312 kts 174°
2026-05-03 20:22 -27.61762 -64.95940 21681 ft 314 kts 175°
2026-05-03 20:22 -27.63914 -64.95492 22007 ft 315 kts 175°
2026-05-03 20:22 -27.66046 -64.95048 22314 ft 316 kts 174°
2026-05-03 20:23 -27.68217 -64.94595 22624 ft 318 kts 174°
2026-05-03 20:23 -27.70392 -64.94142 22914 ft 319 kts 174°
2026-05-03 20:23 -27.72586 -64.93684 23197 ft 321 kts 175°
2026-05-03 20:23 -27.74786 -64.93226 23499 ft 322 kts 175°
2026-05-03 20:24 -27.76994 -64.92793 23739 ft 323 kts 176°
2026-05-03 20:24 -27.79220 -64.92383 23981 ft 324 kts 176°
2026-05-03 20:24 -27.81451 -64.91978 24211 ft 325 kts 176°
2026-05-03 20:24 -27.83687 -64.91572 24442 ft 326 kts 176°
2026-05-03 20:25 -27.85930 -64.91164 24661 ft 327 kts 176°
2026-05-03 20:25 -27.88182 -64.90752 24883 ft 328 kts 176°
2026-05-03 20:25 -27.90448 -64.90336 25101 ft 330 kts 177°
2026-05-03 20:25 -27.92716 -64.89919 25319 ft 331 kts 177°
2026-05-03 20:26 -27.94993 -64.89500 25527 ft 332 kts 177°
2026-05-03 20:26 -27.97278 -64.89078 25732 ft 333 kts 177°
2026-05-03 20:26 -27.99570 -64.88655 25936 ft 334 kts 177°
2026-05-03 20:26 -28.01865 -64.88231 26130 ft 335 kts 177°
2026-05-03 20:27 -28.04172 -64.87804 26337 ft 336 kts 178°
2026-05-03 20:27 -28.06485 -64.87376 26520 ft 338 kts 178°
2026-05-03 20:27 -28.08809 -64.86946 26709 ft 339 kts 178°
2026-05-03 20:27 -28.11134 -64.86515 26896 ft 340 kts 178°
2026-05-03 20:28 -28.13472 -64.86082 27078 ft 340 kts 178°
2026-05-03 20:28 -28.15812 -64.85648 27254 ft 342 kts 178°
2026-05-03 20:28 -28.18163 -64.85212 27418 ft 343 kts 178°
2026-05-03 20:28 -28.20517 -64.84776 27593 ft 344 kts 178°
2026-05-03 20:29 -28.22850 -64.84342 27761 ft 344 kts 178°
2026-05-03 20:29 -28.25250 -64.83897 27924 ft 345 kts 178°
2026-05-03 20:29 -28.27592 -64.83461 28084 ft 346 kts 178°
2026-05-03 20:29 -28.29974 -64.83019 28236 ft 347 kts 178°
2026-05-03 20:30 -28.32361 -64.82575 28386 ft 348 kts 178°
2026-05-03 20:30 -28.34750 -64.82130 28533 ft 349 kts 178°
2026-05-03 20:30 -28.37154 -64.81683 28680 ft 350 kts 178°
2026-05-03 20:30 -28.39557 -64.81235 28815 ft 351 kts 178°
2026-05-03 20:31 -28.41975 -64.80786 28919 ft 354 kts 178°
2026-05-03 20:31 -28.46965 -64.79863 28985 ft 374 kts 178°
2026-05-03 20:31 -28.49560 -64.79380 29245 ft 382 kts 178°
2026-05-03 20:32 -28.52207 -64.78885 29476 ft 390 kts 178°
2026-05-03 20:32 -28.54913 -64.78377 29708 ft 397 kts 178°
2026-05-03 20:32 -28.57661 -64.77862 29938 ft 404 kts 178°
2026-05-03 20:32 -28.60456 -64.77338 30201 ft 409 kts 178°
2026-05-03 20:33 -28.63282 -64.76808 30436 ft 414 kts 178°
2026-05-03 20:33 -28.66144 -64.76236 30688 ft 420 kts 176°
2026-05-03 20:33 -28.69029 -64.75620 30926 ft 424 kts 176°
2026-05-03 20:33 -28.71942 -64.74983 31170 ft 428 kts 176°
2026-05-03 20:34 -28.74883 -64.74336 31410 ft 432 kts 176°
2026-05-03 20:34 -28.77842 -64.73686 31669 ft 435 kts 176°
2026-05-03 20:34 -28.80825 -64.73035 31917 ft 438 kts 176°
2026-05-03 20:34 -28.83815 -64.72384 32166 ft 439 kts 177°
2026-05-03 20:35 -28.86812 -64.71732 32414 ft 438 kts 177°
2026-05-03 20:35 -28.89807 -64.71081 32684 ft 437 kts 177°
2026-05-03 20:35 -28.92792 -64.70433 33041 ft 437 kts 177°
2026-05-03 20:35 -28.95780 -64.69785 33368 ft 437 kts 177°
2026-05-03 20:36 -28.98768 -64.69138 33730 ft 436 kts 178°
2026-05-03 20:36 -29.01745 -64.68491 34108 ft 435 kts 178°
2026-05-03 20:36 -29.04715 -64.67846 34444 ft 434 kts 178°
2026-05-03 20:36 -29.07683 -64.67202 34575 ft 438 kts 178°
2026-05-03 20:37 -29.10679 -64.66554 34837 ft 437 kts 178°
2026-05-03 20:37 -29.13678 -64.65903 34945 ft 440 kts 178°
2026-05-03 20:37 -29.16680 -64.65251 34948 ft 438 kts 178°
2026-05-03 20:38 -29.22573 -64.63960 34950 ft 430 kts 178°
2026-05-03 20:38 -29.28488 -64.62671 34960 ft 430 kts 178°
2026-05-03 20:39 -29.34364 -64.61392 34969 ft 430 kts 178°
2026-05-03 20:39 -29.40246 -64.60108 34962 ft 431 kts 178°
2026-05-03 20:40 -29.46101 -64.58827 34962 ft 431 kts 178°
2026-05-03 20:40 -29.51999 -64.57535 34959 ft 432 kts 178°
2026-05-03 20:41 -29.57908 -64.56239 34968 ft 433 kts 178°
2026-05-03 20:41 -29.63824 -64.55011 34968 ft 431 kts 179°
2026-05-03 20:42 -29.69768 -64.53919 34533 ft 437 kts 179°
2026-05-03 20:42 -29.72772 -64.53368 33960 ft 436 kts 179°
2026-05-03 20:42 -29.75752 -64.52810 33489 ft 432 kts 178°
2026-05-03 20:42 -29.78708 -64.52251 33002 ft 428 kts 178°
2026-05-03 20:43 -29.81631 -64.51697 32541 ft 424 kts 178°
2026-05-03 20:43 -29.84530 -64.51148 32096 ft 420 kts 178°
2026-05-03 20:43 -29.87405 -64.50604 31656 ft 416 kts 178°
2026-05-03 20:43 -29.90248 -64.50066 31215 ft 413 kts 178°
2026-05-03 20:44 -29.93077 -64.49530 30781 ft 410 kts 178°
2026-05-03 20:44 -29.95885 -64.48986 30339 ft 408 kts 177°
2026-05-03 20:44 -29.98676 -64.48402 29867 ft 407 kts 176°
2026-05-03 20:44 -30.01446 -64.47801 29375 ft 404 kts 176°
2026-05-03 20:45 -30.04194 -64.47201 28906 ft 400 kts 176°
2026-05-03 20:45 -30.06917 -64.46608 28447 ft 396 kts 176°
2026-05-03 20:45 -30.09612 -64.46024 28010 ft 392 kts 176°
2026-05-03 20:45 -30.12249 -64.45456 27575 ft 389 kts 176°
2026-05-03 20:46 -30.14903 -64.44886 27146 ft 386 kts 176°
2026-05-03 20:46 -30.17535 -64.44322 26723 ft 383 kts 176°
2026-05-03 20:46 -30.20142 -64.43763 26297 ft 380 kts 176°
2026-05-03 20:46 -30.22734 -64.43207 25876 ft 377 kts 176°
2026-05-03 20:47 -30.25307 -64.42655 25463 ft 375 kts 176°
2026-05-03 20:47 -30.27864 -64.42105 25053 ft 373 kts 176°
2026-05-03 20:47 -30.30406 -64.41559 24636 ft 371 kts 176°
2026-05-03 20:47 -30.32937 -64.41015 24204 ft 369 kts 176°
2026-05-03 20:48 -30.35457 -64.40473 23789 ft 368 kts 175°
2026-05-03 20:48 -30.37966 -64.39933 23325 ft 366 kts 175°
2026-05-03 20:48 -30.40454 -64.39274 22852 ft 370 kts 166°
2026-05-03 20:48 -30.42726 -64.37822 22533 ft 376 kts 150°
2026-05-03 20:49 -30.44806 -64.36000 22109 ft 375 kts 148°
2026-05-03 20:49 -30.46844 -64.34128 21702 ft 372 kts 147°
2026-05-03 20:49 -30.48871 -64.32266 21288 ft 370 kts 147°
2026-05-03 20:49 -30.50890 -64.30431 20883 ft 368 kts 148°
2026-05-03 20:50 -30.52909 -64.28618 20482 ft 366 kts 148°
2026-05-03 20:50 -30.54920 -64.26824 20085 ft 364 kts 148°
2026-05-03 20:50 -30.56920 -64.25043 19691 ft 362 kts 148°
2026-05-03 20:50 -30.58979 -64.23406 19277 ft 354 kts 160°
2026-05-03 20:51 -30.61286 -64.22608 18824 ft 343 kts 179°
2026-05-03 20:51 -30.63647 -64.22458 18421 ft 340 kts 183°
2026-05-03 20:51 -30.66010 -64.22396 17976 ft 339 kts 184°
2026-05-03 20:51 -30.68360 -64.22348 17548 ft 337 kts 184°
2026-05-03 20:52 -30.70694 -64.22294 17154 ft 335 kts 183°
2026-05-03 20:52 -30.73021 -64.22230 16756 ft 333 kts 183°
2026-05-03 20:52 -30.75327 -64.22159 16367 ft 331 kts 182°
2026-05-03 20:52 -30.77584 -64.21837 15965 ft 336 kts 166°
2026-05-03 20:53 -30.79681 -64.20522 15586 ft 344 kts 143°
2026-05-03 20:53 -30.81188 -64.18405 15252 ft 349 kts 121°
2026-05-03 20:53 -30.82172 -64.15847 15042 ft 344 kts 114°
2026-05-03 20:53 -30.83017 -64.13270 14833 ft 340 kts 113°
2026-05-03 20:54 -30.83847 -64.10674 14610 ft 345 kts 113°
2026-05-03 20:54 -30.85539 -64.05364 14171 ft 353 kts 112°
2026-05-03 20:54 -30.86389 -64.02700 14051 ft 350 kts 112°
2026-05-03 20:55 -30.87241 -64.00033 14015 ft 351 kts 112°
2026-05-03 20:55 -30.88089 -63.97377 14008 ft 350 kts 112°
2026-05-03 20:55 -30.88936 -63.94719 14001 ft 350 kts 112°
2026-05-03 20:55 -30.89781 -63.92062 14007 ft 350 kts 112°
2026-05-03 20:56 -30.90625 -63.89409 14002 ft 349 kts 112°
2026-05-03 20:56 -30.91454 -63.86797 13989 ft 338 kts 112°
2026-05-03 20:56 -30.92488 -63.84435 13989 ft 318 kts 132°
2026-05-03 20:56 -30.93508 -63.83279 13992 ft 303 kts 149°
2026-05-03 20:57 -30.95920 -63.81882 13999 ft 280 kts 162°
2026-05-03 20:57 -30.97682 -63.81042 13987 ft 267 kts 162°
2026-05-03 20:57 -30.99362 -63.80243 13985 ft 255 kts 162°
2026-05-03 20:57 -31.00984 -63.79470 13990 ft 249 kts 162°
2026-05-03 20:58 -31.02592 -63.78705 14011 ft 253 kts 162°
2026-05-03 20:58 -31.04239 -63.77926 13962 ft 256 kts 162°
2026-05-03 20:58 -31.05892 -63.77146 13677 ft 257 kts 162°
2026-05-03 20:58 -31.07555 -63.76365 13259 ft 259 kts 162°
2026-05-03 20:59 -31.09252 -63.75630 12816 ft 261 kts 169°
2026-05-03 20:59 -31.11047 -63.75130 12110 ft 273 kts 172°
2026-05-03 20:59 -31.12984 -63.74667 11121 ft 296 kts 172°
2026-05-03 20:59 -31.15053 -63.74199 10454 ft 306 kts 172°
2026-05-03 21:00 -31.17126 -63.73741 10205 ft 297 kts 172°
2026-05-03 21:00 -31.17780 -63.73597 10137 ft 294 kts 172°
2026-05-03 21:00 -31.21033 -63.72880 9985 ft 273 kts 173°
2026-05-03 21:00 -31.22868 -63.72475 9881 ft 268 kts 172°
2026-05-03 21:01 -31.24701 -63.72073 9776 ft 267 kts 172°
2026-05-03 21:01 -31.26533 -63.71674 9717 ft 270 kts 172°
2026-05-03 21:01 -31.27771 -63.71409 9517 ft 275 kts 172°
2026-05-03 21:01 -31.30331 -63.70877 8932 ft 284 kts 172°
2026-05-03 21:02 -31.31631 -63.70614 8630 ft 288 kts 173°
2026-05-03 21:02 -31.33598 -63.70223 8387 ft 285 kts 172°
2026-05-03 21:02 -31.35525 -63.69845 8287 ft 277 kts 172°
2026-05-03 21:02 -31.37400 -63.69479 8229 ft 270 kts 173°
2026-05-03 21:03 -31.39238 -63.69120 8205 ft 266 kts 172°
2026-05-03 21:03 -31.41019 -63.68769 8115 ft 255 kts 173°
2026-05-03 21:03 -31.42766 -63.68425 7855 ft 253 kts 172°
2026-05-03 21:03 -31.44494 -63.68091 7613 ft 250 kts 174°
2026-05-03 21:04 -31.46164 -63.68313 7325 ft 238 kts 212°
2026-05-03 21:04 -31.47262 -63.69598 7082 ft 217 kts 253°
2026-05-03 21:04 -31.47630 -63.71249 6894 ft 205 kts 268°
2026-05-03 21:04 -31.47650 -63.72878 6634 ft 197 kts 282°
2026-05-03 21:05 -31.47465 -63.74447 6405 ft 193 kts 285°
2026-05-03 21:05 -31.47257 -63.75989 6156 ft 191 kts 285°
2026-05-03 21:05 -31.47052 -63.77511 5943 ft 186 kts 285°
2026-05-03 21:05 -31.46859 -63.78968 5979 ft 178 kts 286°
2026-05-03 21:06 -31.46652 -63.80485 5870 ft 208 kts 285°
2026-05-03 21:06 -31.46417 -63.82214 5639 ft 218 kts 284°
2026-05-03 21:06 -31.46192 -63.83958 5390 ft 216 kts 284°
2026-05-03 21:06 -31.45963 -63.85719 5157 ft 226 kts 284°
2026-05-03 21:07 -31.45711 -63.87641 5061 ft 246 kts 284°
2026-05-03 21:07 -31.45454 -63.89637 5020 ft 249 kts 284°
2026-05-03 21:07 -31.45200 -63.91637 5003 ft 246 kts 283°
2026-05-03 21:07 -31.44948 -63.93611 4993 ft 244 kts 283°
2026-05-03 21:08 -31.44697 -63.95571 4981 ft 243 kts 284°
2026-05-03 21:08 -31.44443 -63.97544 4990 ft 247 kts 284°
2026-05-03 21:08 -31.44186 -63.99534 4985 ft 247 kts 283°
2026-05-03 21:08 -31.43935 -64.01484 4975 ft 236 kts 284°
2026-05-03 21:09 -31.43688 -64.03402 4614 ft 239 kts 284°
2026-05-03 21:09 -31.43464 -64.05299 4521 ft 232 kts 279°
2026-05-03 21:09 -31.43441 -64.07147 4510 ft 219 kts 275°
2026-05-03 21:09 -31.43464 -64.08859 4487 ft 201 kts 276°
2026-05-03 21:10 -31.43478 -64.10488 4129 ft 198 kts 276°
2026-05-03 21:10 -31.43486 -64.12045 3941 ft 185 kts 276°
2026-05-03 21:10 -31.43491 -64.13494 3808 ft 171 kts 278°
2026-05-03 21:10 -31.43497 -64.14805 3756 ft 150 kts 279°
2026-05-03 21:11 -31.43464 -64.15984 3613 ft 139 kts 290°
2026-05-03 21:11 -31.42940 -64.16756 3623 ft 120 kts 339°
2026-05-03 21:11 -31.42172 -64.17235 3441 ft 130 kts 333°
2026-05-03 21:11 -31.41439 -64.17776 3382 ft 125 kts 334°
2026-05-03 21:12 -31.40694 -64.18316 3235 ft 126 kts 334°
2026-05-03 21:12 -31.39954 -64.18847 3077 ft 126 kts 335°
2026-05-03 21:12 -31.39200 -64.19381 2908 ft 127 kts 335°
2026-05-03 21:12 -31.38443 -64.19914 2753 ft 127 kts 336°
2026-05-03 21:13 -31.37674 -64.20433 2585 ft 129 kts 338°
2026-05-03 21:13 -31.36837 -64.20800 2459 ft 126 kts 357°
2026-05-03 21:13 -31.35997 -64.20804 2399 ft 117 kts
2026-05-03 21:13 -31.35170 -64.20788 2175 ft 119 kts
2026-05-03 21:14 -31.34341 -64.20797 2005 ft 120 kts
2026-05-03 21:14 -31.33513 -64.20805 1864 ft 117 kts
2026-05-03 21:14 -31.32714 -64.20811 1701 ft 114 kts
2026-05-03 21:14 -31.31949 -64.20821 1616 ft 94 kts
2026-05-03 21:15 -31.31511 -64.20827 1618 ft 40 kts 359°
2026-05-03 21:15 -31.31277 -64.20831 1616 ft 20 kts 359°
2026-05-03 21:15 -31.31190 -64.20827 1617 ft 6 kts 323°
2026-05-03 21:15 -31.31188 -64.20843 1613 ft 1 kts 242°
2026-05-03 21:16 -31.31216 -64.20849 1614 ft 9 kts 172°
2026-05-03 21:16 -31.31306 -64.20832 1614 ft 16 kts 175°
2026-05-03 21:16 -31.31426 -64.20838 1618 ft 16 kts 194°
2026-05-03 21:16 -31.31465 -64.20923 1612 ft 8 kts 269°
2026-05-03 21:17 -31.31466 -64.20959 1612 ft 0 kts 269°
2026-05-03 21:17 -31.31466 -64.20960 1612 ft 0 kts 269°
2026-05-03 21:18 -31.31466 -64.20961 1612 ft 1 kts 269°
2026-05-03 21:18 -31.31466 -64.20984 1612 ft 5 kts 267°
2026-05-03 21:19 -31.31472 -64.21045 1615 ft 10 kts 262°
2026-05-03 21:19 -31.31475 -64.21122 1612 ft 7 kts 269°
2026-05-03 21:19 -31.31484 -64.21170 1614 ft 5 kts 256°
2026-05-03 21:19 -31.31486 -64.21180 1613 ft 0 kts 257°